Location: Gloden
(48.4833°N, 15.3167°E)
Time: 20:26:35
(UTC+00:00)

Cosmos 1908 Rocket - Pass Details

Date: 15 December 2019
Orbit: 605 x 633 km, 82.5° (Epoch: 26 January)

Event Time Altitude Azimuth Distance (km) Brightness Sun altitude
Rises 05:27:33 0° 194° (SSW) 2,915 7.1 -11.9°
Reaches altitude 10° 05:29:47 10° 196° (SSW) 2,011 6.3 -11.5°
Maximum altitude 05:34:14 71° 281° (W) 672 3.5 -10.8°
Drops below altitude 10° 05:38:42 10° 6° (N) 2,016 6.0 -10.2°
Sets 05:40:58 0° 8° (N) 2,924 6.9 -9.8°
